This is the latest recevied weather packets stored in our database for station/object AA8FM-13. If no packets are shown the sender has not sent any weather packets the latest 1 day(s).
| Time | Temp. | Humidity | Pressure | Rain* | Wind** | Luminosity | Snow |
|---|---|---|---|---|---|---|---|
| 1836274832 | 18.33° C | 94% | 1017 hPa | 0 mm | 0 m/s | 0 W/m² | - |
| 1836274529 | 18.33° C | 94% | 1017.1 hPa | 0 mm | 0 m/s | 0 W/m² | - |
| 1836274383 | 17.78° C | 94% | 1016.9 hPa | 0 mm | 0 m/s | 0 W/m² | - |
| 1836274228 | 18.33° C | 94% | 1017.2 hPa | 0 mm | 0 m/s | 0 W/m² | - |
| 1836273922 | 18.33° C | 93% | 1017 hPa | 0 mm | 0 m/s | 0 W/m² | - |
| 1778072343 | 13.89° C | 99% | 1004.7 hPa | 0 mm | 0 m/s | 39 W/m² | - |
| 1778072041 | 13.89° C | 99% | 1004.7 hPa | 0 mm | 0 m/s | 29 W/m² | - |
| 1778071739 | 13.89° C | 99% | 1004.8 hPa | 0 mm | 0 m/s | 33 W/m² | - |
| 1778071435 | 13.33° C | 99% | 1004.6 hPa | 0 mm | 0 m/s | 29 W/m² | - |
| 1778071133 | 13.33° C | 99% | 1004.8 hPa | 1.78 mm | 0 m/s | 30 W/m² | - |
| 1778070831 | 13.33° C | 99% | 1004.9 hPa | 1.78 mm | 0 m/s | 22 W/m² | - |
| 1778070528 | 13.33° C | 99% | 1005 hPa | 0 mm | 0.45 m/s, 152° | 25 W/m² | - |
| 1778070225 | 13.33° C | 99% | 1004.8 hPa | 0 mm | 0 m/s | 24 W/m² | - |
| 1778069923 | 13.33° C | 99% | 1004.7 hPa | 0 mm | 0 m/s | 23 W/m² | - |
| 1778069620 | 13.33° C | 99% | 1004.7 hPa | 0 mm | 0 m/s | 18 W/m² | - |
| 1778069317 | 13.33° C | 99% | 1004.8 hPa | 0 mm | 0 m/s | 16 W/m² | - |
| 1778069015 | 13.33° C | 99% | 1004.9 hPa | 1.27 mm | 0 m/s | 11 W/m² | - |
| 1778068712 | 13.33° C | 99% | 1004.9 hPa | 1.27 mm | 0 m/s | 15 W/m² | - |
| 1778068410 | 13.33° C | 99% | 1004.6 hPa | 0 mm | 0 m/s | 9 W/m² | - |
| 1778068108 | 13.33° C | 99% | 1004.8 hPa | 0 mm | 0 m/s | 8 W/m² | - |
| 1778067805 | 13.33° C | 99% | 1005 hPa | 1.78 mm | 0 m/s | 11 W/m² | - |
| 1778067504 | 13.33° C | 99% | 1004.8 hPa | 1.78 mm | 0 m/s | 15 W/m² | - |
| 1778067201 | 13.33° C | 99% | 1004.8 hPa | 1.78 mm | 0 m/s | 12 W/m² | - |
| 1778066897 | 12.78° C | 99% | 1004.7 hPa | 1.78 mm | 0 m/s | 10 W/m² | - |
| 1778066594 | 12.78° C | 99% | 1004.6 hPa | 3.05 mm | 0 m/s | 9 W/m² | - |
* Rain latest hour (hover to see other rain measurements)
** Current wind speed in m/s (hover to see current wind gust speed)